Date,TemperatureHighF,TemperatureAvgF,TemperatureLowF,DewpointHighF,DewpointAvgF,DewpointLowF,HumidityHigh,HumidityAvg,HumidityLow,PressureMaxIn,PressureMinIn,WindSpeedMaxMPH,WindSpeedAvgMPH,GustSpeedMaxMPH,PrecipitationSumIn
2013-5-1,87.5,64.6,45.1,38.5,33.4,28.5,54,34,16,30.57,30.49,5,1,15,0.00
2013-5-2,79.0,60.3,49.0,41.7,33.8,28.4,55,38,23,30.65,30.50,5,1,17,0.00
2013-5-3,79.2,58.9,40.7,42.8,34.5,25.8,58,42,25,30.68,30.49,4,1,13,0.00
2013-5-4,83.0,62.3,48.1,39.6,35.5,30.4,64,41,15,30.51,30.36,4,1,13,0.00
2013-5-5,83.9,61.3,42.4,40.4,32.9,27.0,57,37,17,30.46,30.30,3,1,10,0.00
2013-5-6,86.3,63.5,43.6,43.5,34.3,26.3,58,38,13,30.38,30.22,3,1,12,0.00
2013-5-7,91.2,67.6,47.5,48.7,40.2,32.9,60,41,17,30.29,30.16,3,1,13,0.00
2013-5-8,82.6,68.2,53.5,56.6,48.6,40.3,65,51,31,30.34,30.24,5,2,17,0.04
2013-5-9,78.3,65.1,60.5,60.8,53.6,50.3,73,67,47,30.22,30.03,2,1,9,0.70
2013-5-10,80.8,68.0,59.6,58.4,52.8,48.4,71,59,38,30.07,30.02,2,0,11,0.64
2013-5-11,66.0,62.2,58.5,54.5,49.4,44.4,67,63,55,30.03,29.77,2,1,7,0.23
2013-5-12,74.4,63.2,51.0,51.7,45.0,28.1,71,53,32,29.85,29.66,7,1,18,0.00
2013-5-13,63.4,52.3,44.2,31.6,25.8,22.0,49,36,24,30.15,29.85,8,4,25,0.00
2013-5-14,70.2,54.9,40.0,29.9,26.5,21.8,55,36,19,30.15,30.07,5,2,15,0.00
2013-5-15,75.4,55.5,40.1,45.5,31.7,22.9,68,43,21,30.15,29.79,5,2,16,0.13
2013-5-16,82.7,65.7,53.9,44.9,39.9,35.2,68,43,19,29.94,29.69,8,2,25,0.00
2013-5-17,76.6,62.6,50.5,39.6,35.9,33.8,56,39,22,30.34,29.94,5,2,19,0.00
2013-5-18,79.3,62.5,49.7,44.5,39.1,35.5,59,44,21,30.44,30.34,4,1,14,0.00
2013-5-19,69.4,58.8,50.5,48.8,43.2,36.3,66,57,44,30.49,30.35,4,1,11,0.17
2013-5-20,82.6,65.5,56.2,56.4,51.2,46.1,76,62,35,30.33,30.05,4,1,13,0.13
2013-5-21,63.4,59.1,54.8,48.6,45.4,42.7,74,60,56,30.26,30.07,4,1,12,0.74
2013-5-22,66.1,58.8,54.5,51.7,48.3,44.4,74,68,57,30.14,30.05,2,1,8,0.16
2013-5-23,75.2,65.1,55.8,62.4,54.6,46.9,77,69,56,30.06,29.90,4,1,12,0.14
2013-5-24,75.0,67.3,55.5,62.7,55.8,43.3,81,67,50,29.99,29.76,3,1,9,0.88
2013-5-25,55.3,52.5,47.4,43.7,40.3,32.2,69,63,54,29.99,29.83,4,2,14,0.77
2013-5-26,67.9,54.9,46.0,37.7,34.7,32.3,62,48,32,30.11,29.79,5,2,17,0.08
2013-5-27,77.7,59.6,43.1,38.1,33.4,30.6,63,41,19,30.30,30.12,5,2,18,0.00
2013-5-28,82.9,64.2,46.5,42.3,37.0,32.8,60,40,19,30.36,30.27,3,1,12,0.00
2013-5-29,62.4,58.1,54.4,51.0,45.9,39.9,72,64,51,30.31,30.12,1,0,5,0.13
2013-5-30,95.7,75.4,59.0,60.0,55.0,50.1,77,53,27,30.17,30.10,4,1,14,0.00
2013-5-31,98.8,79.8,63.9,66.4,59.7,53.3,73,53,31,30.19,30.03,4,1,17,0.00